パンスターズ彗星

P/2021 R1 ( PanSTARRS )

English version
Home page
Updated on January 20, 2022

---------------------------------------------------------------------

・ プロフィール

発見日 2021年9月4日
発見光度 20.6等
発見者 Pan-STARRS 1 telescope (Haleakala)

・ 写真集

・ 軌道要素

Epoch 2022 Jan. 21.0 TT = JDT 2459600.5
T 2021 Dec. 17.63487 TT                                 Rudenko
q   4.8857769            (2000.0)            P               Q
n   0.04038063     Peri.  220.32054     +0.99609401     -0.06713520
a   8.4143523      Node   143.40784     +0.08221373     +0.94211449
e   0.4193520      Incl.    5.52123     -0.03221227     +0.32850136
P  24.4
From 112 observations 2020 Aug. 10-2021 Nov. 6, mean residual 0".2.

・ 光度変化

        m1 = 11.0 + 5 logΔ + 10.0 log r

---------------------------------------------------------------------

軌道要素はM.P.E.C. 2021-W31に掲載されたものです。
光度グラフはComet for Windowsで作成したものです。

---------------------------------------------------------------------

Copyright(C) Seiichi Yoshida (comet@aerith.net). All rights reserved.